TimeMST,TemperatureF,Dew PointF,Humidity,Sea Level PressureIn,VisibilityMPH,Wind Direction,Wind SpeedMPH,Gust SpeedMPH,PrecipitationIn,Events,Conditions,WindDirDegrees,DateUTC
12:56 AM,42.1,21.0,43,30.02,10.0,NE,5.8,-,N/A,,Clear,40,2013-03-12 07:56:00
1:56 AM,37.0,19.9,50,30.02,10.0,Calm,Calm,-,N/A,,Clear,0,2013-03-12 08:56:00
2:56 AM,39.0,21.0,49,30.00,10.0,WNW,3.5,-,N/A,,Clear,290,2013-03-12 09:56:00
3:56 AM,35.1,19.0,52,30.00,10.0,NNE,4.6,-,N/A,,Clear,20,2013-03-12 10:56:00
4:56 AM,32.0,19.0,59,30.02,10.0,West,8.1,-,N/A,,Clear,280,2013-03-12 11:56:00
5:56 AM,30.0,19.0,64,30.04,10.0,ESE,3.5,-,N/A,,Clear,120,2013-03-12 12:56:00
6:56 AM,32.0,18.0,56,30.07,10.0,ESE,3.5,-,N/A,,Clear,110,2013-03-12 13:56:00
7:56 AM,39.9,21.9,49,30.09,10.0,Calm,Calm,-,N/A,,Clear,0,2013-03-12 14:56:00
8:56 AM,51.1,24.1,35,30.08,10.0,NW,5.8,-,N/A,,Clear,320,2013-03-12 15:56:00
9:56 AM,59.0,24.1,26,30.07,10.0,WNW,3.5,-,N/A,,Clear,290,2013-03-12 16:56:00
10:56 AM,63.0,24.1,23,30.06,10.0,SW,3.5,-,N/A,,Clear,220,2013-03-12 17:56:00
11:56 AM,69.1,24.1,18,30.04,10.0,Variable,3.5,-,N/A,,Clear,0,2013-03-12 18:56:00
12:56 PM,73.9,21.9,14,30.01,10.0,NNE,8.1,-,N/A,,Clear,20,2013-03-12 19:56:00
1:56 PM,75.0,16.0,11,30.00,10.0,SE,8.1,-,N/A,,Clear,130,2013-03-12 20:56:00
2:56 PM,75.9,14.0,10,29.97,10.0,East,9.2,-,N/A,,Clear,100,2013-03-12 21:56:00
3:56 PM,75.0,15.1,10,29.97,10.0,Calm,Calm,-,N/A,,Clear,0,2013-03-12 22:56:00
4:56 PM,75.9,15.1,10,29.98,10.0,Variable,3.5,-,N/A,,Clear,0,2013-03-12 23:56:00
5:56 PM,73.9,17.1,12,30.00,10.0,NNE,3.5,-,N/A,,Clear,20,2013-03-13 00:56:00
6:56 PM,63.0,15.1,16,30.03,10.0,ENE,5.8,-,N/A,,Clear,70,2013-03-13 01:56:00
7:56 PM,59.0,15.1,18,30.05,10.0,ENE,10.4,-,N/A,,Clear,60,2013-03-13 02:56:00
8:56 PM,57.0,12.9,18,30.04,10.0,ENE,6.9,-,N/A,,Clear,60,2013-03-13 03:56:00
9:56 PM,50.0,12.9,23,30.06,10.0,WNW,3.5,-,N/A,,Clear,300,2013-03-13 04:56:00
10:56 PM,52.0,18.0,26,30.06,10.0,WNW,3.5,-,N/A,,Clear,300,2013-03-13 05:56:00
11:56 PM,54.0,17.1,23,30.05,10.0,North,4.6,-,N/A,,Clear,350,2013-03-13 06:56:00